Location: Unspecified
(0.0000°N, 0.0000°E)
Time: 06:45:51
(UTC+00:00)

Hubble Space Telescope - Pass Details

Date: 25 May 2019
Orbit: 536 x 540 km, 28.5° (Epoch: 14 September)

Event Time Altitude Azimuth Distance (km) Brightness Sun altitude
Rises 19:45:58 0° 309° (NW) 2,666 5.5 -25.3°
Reaches altitude 10° 19:48:17 10° 315° (NW) 1,776 4.3 -25.8°
Enters shadow 19:51:04 36° 344° (NNW) 855 2.0 -26.5°
